Location: Clarion
(42.7316°N, 93.7330°W)
Time: 09:24:55
(UTC+00:00)

Cosmos 1447 Rocket - Pass Details

Date: 22 April 2026
Orbit: 953 x 996 km, 82.9° (Epoch: 17 May)

Event Time Altitude Azimuth Distance (km) Brightness Sun altitude
Rises 03:51:58 0° 353° (N) 3,689 8.4 -26.2°
Reaches altitude 10° 03:54:31 10° 355° (N) 2,731 7.5 -26.5°
Maximum altitude 04:00:47 76° 82° (E) 998 4.4 -27.2°
Enters shadow 04:01:14 72° 121° (ESE) 1,014 4.3 -27.3°
